Middlebury State AP, Middlebu, VT

2:33 AM EST on November 13, 2019 (GMT -0500)
Middlebury State AP, Middlebu

Weather History for K6B0 - August, 2019

Change the Weather History Date:

Thursday, August 8, 2019

  Actual Average (WUND) Record (WUND)
Temperature  
Mean Temperature 72 °F -  
Max Temperature 79 °F - - (-1)
Min Temperature 65 °F - - (-1)
Cooling Degree Days 7    
Growing Degree Days 22 (Base 50)    
Moisture  
Dew Point 65 °F    
Average Humidity 84    
Maximum Humidity 98    
Minimum Humidity 65    
Precipitation  
Precipitation 0.35 in - - ()
Sea Level Pressure  
Sea Level Pressure 29.64 in    
Wind  
Wind Speed 3 mph ()    
Max Wind Speed 12 mph    
Max Gust Speed 17 mph    
Visibility 9.0 miles    
Events Rain    
Averages and records for this station are not official NWS values.
T = Trace of Precipitation, MM = Missing Value Source: Averaged Metar Reports

Daily Weather History Graph

Daily Weather History Graph

Search for Another Location

Airport or City:

Astronomy

Aug. 08, 2019 Rise Set
Actual Time 5:48 AM EDT 8:07 PM EDT
Civil Twilight 5:15 AM EDT 8:39 PM EDT
Nautical Twilight 4:36 AM EDT 9:18 PM EDT
Astronomical Twilight 3:51 AM EDT 10:03 PM EDT
Moon 2:40 PM EDT (8/8) 12:10 AM EDT (8/8)
Length of Visible Light 15h 23m
Length of Day
14h 19m
First Quarter, 60% of the Moon is Illuminated
Aug 8
First Quarter
Aug 15
Full
Aug 23
Last Quarter
Aug 30
New
Sep 5
First Quarter

Hourly Weather History & Observations

Time (EDT) Temp. Dew Point Humidity Pressure Visibility Wind Dir Wind Speed Gust Speed Precip Events Conditions
12:15 AM 68.0 °F 67.3 °F 98% 29.72 in 7.0 mi SSE 3.5 mph - 0.01 in Rain Light Rain
12:19 AM 68.2 °F 67.3 °F 97% 29.72 in 10.0 mi Calm Calm - 0.01 in Rain Light Rain
12:36 AM 68.4 °F 67.3 °F 96% 29.72 in 7.0 mi Calm Calm - 0.01 in   Overcast
12:56 AM 68.4 °F 67.5 °F 97% 29.71 in 7.0 mi Calm Calm - 0.01 in Rain Rain
1:15 AM 68.4 °F 67.3 °F 96% 29.70 in 7.0 mi Calm Calm - 0.01 in Rain Light Rain
1:16 AM 68.4 °F 67.3 °F 96% 29.70 in 7.0 mi SSE 3.5 mph - 0.01 in Rain Light Rain
1:35 AM 68.4 °F 67.5 °F 97% 29.69 in 7.0 mi Calm Calm - 0.01 in   Overcast
1:39 AM 68.2 °F 67.3 °F 97% 29.69 in 7.0 mi SSE 3.5 mph - 0.01 in   Overcast
1:58 AM 68.0 °F 66.6 °F 95% 29.68 in 10.0 mi SSE 3.5 mph - 0.01 in   Scattered Clouds
2:16 AM 67.5 °F 66.2 °F 96% 29.68 in 7.0 mi Calm Calm - N/A   Clear
2:35 AM 67.3 °F 65.7 °F 95% 29.67 in 10.0 mi Calm Calm - N/A   Clear
2:55 AM 66.6 °F 65.7 °F 97% 29.67 in 7.0 mi Calm Calm - N/A   Scattered Clouds
2:56 AM 66.6 °F 65.7 °F 97% 29.67 in 7.0 mi Calm Calm - N/A   Scattered Clouds
3:18 AM 66.4 °F 65.7 °F 98% 29.67 in 5.0 mi Calm Calm - N/A   Mostly Cloudy
3:36 AM 66.7 °F 65.7 °F 96% 29.67 in 10.0 mi Calm Calm - N/A   Overcast
3:55 AM 67.5 °F 65.3 °F 93% 29.66 in 10.0 mi SSE 3.5 mph - N/A   Overcast
3:56 AM 67.5 °F 65.3 °F 93% 29.66 in 10.0 mi Calm Calm - N/A   Overcast
4:15 AM 67.1 °F 65.7 °F 95% 29.66 in 10.0 mi SE 3.5 mph - N/A   Overcast
4:16 AM 67.1 °F 65.5 °F 95% 29.66 in 10.0 mi SE 3.5 mph - N/A   Overcast
4:35 AM 67.5 °F 65.5 °F 93% 29.66 in 10.0 mi Calm Calm - N/A   Overcast
4:39 AM 67.5 °F 65.7 °F 94% 29.66 in 10.0 mi Calm Calm - N/A   Overcast
4:57 AM 67.5 °F 65.3 °F 93% 29.65 in 10.0 mi Calm Calm - N/A   Overcast
5:15 AM 67.1 °F 65.3 °F 94% 29.65 in 10.0 mi SSE 3.5 mph - N/A   Overcast
5:35 AM 67.3 °F 65.5 °F 94% 29.65 in 10.0 mi Calm Calm - N/A   Overcast
5:55 AM 67.1 °F 65.5 °F 95% 29.65 in 10.0 mi SSE 4.6 mph - N/A Rain Rain
6:18 AM 67.3 °F 65.7 °F 95% 29.65 in 5.0 mi Calm Calm - 0.01 in Rain Light Rain
6:36 AM 67.3 °F 65.7 °F 95% 29.66 in 4.0 mi South 5.8 mph - 0.04 in Rain Heavy Rain
6:56 AM 66.7 °F 65.7 °F 96% 29.66 in 2.5 mi SSW 4.6 mph - 0.13 in Rain Rain
7:15 AM 67.1 °F 65.8 °F 96% 29.66 in 5.0 mi South 4.6 mph - 0.03 in Rain Rain
7:16 AM 67.1 °F 65.8 °F 96% 29.66 in 5.0 mi South 3.5 mph - 0.03 in Rain Rain
7:35 AM 66.9 °F 65.8 °F 96% 29.67 in 3.0 mi Calm Calm - 0.08 in Rain Rain
7:39 AM 67.1 °F 66.2 °F 97% 29.67 in 4.0 mi South 3.5 mph - 0.09 in Rain Rain
7:57 AM 67.1 °F 66.2 °F 97% 29.67 in 4.0 mi South 3.5 mph - 0.15 in Rain Heavy Rain
8:15 AM 67.1 °F 66.2 °F 97% 29.67 in 7.0 mi Calm Calm - 0.02 in Rain Light Rain
8:35 AM 67.5 °F 66.6 °F 97% 29.67 in 7.0 mi Calm Calm - 0.02 in Rain Rain
8:36 AM 67.5 °F 66.6 °F 97% 29.67 in 7.0 mi Calm Calm - 0.02 in Rain Rain
8:55 AM 67.5 °F 66.6 °F 97% 29.67 in 7.0 mi Calm Calm - 0.02 in Rain Light Rain
8:56 AM 67.6 °F 66.6 °F 96% 29.67 in 7.0 mi Calm Calm - 0.02 in Rain Light Rain
9:19 AM 68.9 °F 67.1 °F 94% 29.66 in 10.0 mi Calm Calm - N/A Rain Light Rain
9:37 AM 69.8 °F 66.6 °F 89% 29.66 in 10.0 mi Calm Calm - N/A   Overcast
9:55 AM 70.3 °F 66.9 °F 89% 29.66 in 10.0 mi WSW 3.5 mph - N/A   Scattered Clouds
10:15 AM 70.9 °F 67.5 °F 89% 29.65 in 10.0 mi South 3.5 mph - N/A   Scattered Clouds
10:16 AM 71.1 °F 67.5 °F 88% 29.65 in 10.0 mi South 3.5 mph - N/A   Scattered Clouds
10:35 AM 72.9 °F 66.6 °F 81% 29.65 in 10.0 mi SSW 3.5 mph - N/A   Mostly Cloudy
10:39 AM 72.7 °F 65.8 °F 79% 29.65 in 10.0 mi Calm Calm - N/A   Mostly Cloudy
10:57 AM 73.2 °F 67.1 °F 81% 29.65 in 10.0 mi SSW 5.8 mph - N/A   Overcast
11:16 AM 72.9 °F 66.9 °F 82% 29.65 in 10.0 mi South 3.5 mph - N/A   Overcast
11:35 AM 74.1 °F 66.9 °F 78% 29.65 in 10.0 mi South 8.1 mph - N/A   Mostly Cloudy
11:36 AM 74.1 °F 66.7 °F 78% 29.65 in 10.0 mi South 8.1 mph - N/A   Mostly Cloudy
11:55 AM 74.3 °F 66.7 °F 77% 29.65 in 10.0 mi SSW 3.5 mph - N/A   Mostly Cloudy
11:59 AM 74.7 °F 67.1 °F 77% 29.65 in 10.0 mi SW 8.1 mph - N/A   Mostly Cloudy
12:17 PM 76.1 °F 66.7 °F 73% 29.65 in 10.0 mi South 8.1 mph - N/A   Mostly Cloudy
12:35 PM 77.2 °F 66.6 °F 70% 29.64 in 10.0 mi South 6.9 mph - N/A   Scattered Clouds
12:55 PM 77.9 °F 66.0 °F 67% 29.63 in 10.0 mi SSW 5.8 mph - N/A   Scattered Clouds
12:56 PM 77.9 °F 66.4 °F 68% 29.63 in 10.0 mi South 9.2 mph - N/A   Scattered Clouds
1:15 PM 77.5 °F 66.7 °F 69% 29.63 in 10.0 mi South 6.9 mph - N/A   Mostly Cloudy
1:39 PM 77.7 °F 65.7 °F 66% 29.62 in 10.0 mi South 6.9 mph - N/A   Mostly Cloudy
1:57 PM 76.3 °F 66.0 °F 70% 29.61 in 10.0 mi SSE 3.5 mph - N/A   Mostly Cloudy
2:16 PM 79.2 °F 66.4 °F 65% 29.61 in 10.0 mi South 9.2 mph - N/A   Mostly Cloudy
2:35 PM 77.2 °F 65.7 °F 67% 29.60 in 10.0 mi SSE 5.8 mph - N/A   Mostly Cloudy
2:36 PM 77.0 °F 65.8 °F 68% 29.60 in 10.0 mi SSE 4.6 mph - N/A   Mostly Cloudy
2:55 PM 76.3 °F 66.2 °F 71% 29.60 in 10.0 mi South 9.2 mph 17.3 mph N/A   Mostly Cloudy
3:00 PM 75.4 °F 64.2 °F 68% 29.62 in 10.0 mi SSW 11.5 mph 17.3 mph N/A   Overcast
3:17 PM 69.8 °F 65.3 °F 86% 29.62 in 10.0 mi ESE 3.5 mph - 0.01 in Rain Light Rain
3:35 PM 71.4 °F 66.6 °F 85% 29.61 in 10.0 mi Calm Calm - 0.03 in   Overcast
3:55 PM 75.4 °F 65.8 °F 72% 29.60 in 10.0 mi Calm Calm - 0.03 in   Scattered Clouds
4:15 PM 77.5 °F 68.2 °F 73% 29.60 in 10.0 mi SSE 3.5 mph - N/A   Scattered Clouds
4:38 PM 78.1 °F 68.2 °F 71% 29.59 in 10.0 mi SSE 5.8 mph - N/A   Mostly Cloudy
4:56 PM 78.8 °F 67.5 °F 68% 29.59 in 10.0 mi South 6.9 mph - N/A   Scattered Clouds
5:16 PM 78.8 °F 67.5 °F 68% 29.59 in 10.0 mi South 9.2 mph - N/A   Clear
5:35 PM 78.1 °F 66.4 °F 67% 29.59 in 10.0 mi South 10.4 mph 17.3 mph N/A   Clear
5:36 PM 78.1 °F 66.4 °F 67% 29.58 in 10.0 mi South 9.2 mph 17.3 mph N/A   Clear
5:55 PM 78.1 °F 66.4 °F 67% 29.58 in 10.0 mi South 11.5 mph - N/A   Clear
5:59 PM 77.9 °F 65.8 °F 66% 29.57 in 10.0 mi South 9.2 mph - N/A   Clear
6:17 PM 77.0 °F 64.8 °F 66% 29.57 in 10.0 mi South 10.4 mph - N/A   Clear
6:35 PM 75.7 °F 65.5 °F 70% 29.58 in 10.0 mi South 6.9 mph - N/A   Clear
6:55 PM 74.7 °F 65.3 °F 73% 29.58 in 10.0 mi South 8.1 mph - N/A   Clear
6:56 PM 74.5 °F 65.1 °F 72% 29.58 in 10.0 mi South 6.9 mph - N/A   Clear
7:15 PM 73.2 °F 64.6 °F 74% 29.58 in 10.0 mi South 5.8 mph - N/A   Clear
7:16 PM 73.0 °F 64.4 °F 74% 29.58 in 10.0 mi South 5.8 mph - N/A   Clear
7:39 PM 72.0 °F 63.9 °F 76% 29.59 in 10.0 mi SSE 5.8 mph - N/A   Clear
7:57 PM 72.5 °F 63.9 °F 74% 29.59 in 10.0 mi SSE 6.9 mph - N/A   Clear
8:16 PM 72.0 °F 64.4 °F 77% 29.61 in 10.0 mi South 8.1 mph - N/A   Clear
8:35 PM 71.2 °F 64.4 °F 79% 29.60 in 10.0 mi South 5.8 mph - N/A   Clear
8:36 PM 71.2 °F 64.4 °F 79% 29.60 in 10.0 mi South 4.6 mph - N/A   Clear
8:55 PM 70.2 °F 64.4 °F 82% 29.61 in 10.0 mi SSW 4.6 mph - N/A   Clear
9:00 PM 70.3 °F 64.4 °F 81% 29.61 in 10.0 mi South 4.6 mph - N/A   Clear
9:17 PM 70.0 °F 64.2 °F 82% 29.62 in 10.0 mi South 6.9 mph - N/A   Scattered Clouds
9:35 PM 70.0 °F 64.0 °F 81% 29.63 in 10.0 mi South 8.1 mph - N/A   Mostly Cloudy
9:55 PM 69.4 °F 63.1 °F 80% 29.64 in 10.0 mi South 9.2 mph - N/A   Overcast
9:56 PM 69.4 °F 63.1 °F 80% 29.64 in 10.0 mi South 10.4 mph - N/A   Overcast
10:15 PM 68.7 °F 61.7 °F 78% 29.64 in 10.0 mi SSE 6.9 mph - N/A   Scattered Clouds
10:16 PM 68.5 °F 61.7 °F 79% 29.64 in 10.0 mi South 6.9 mph - N/A   Scattered Clouds
10:39 PM 67.3 °F 61.7 °F 82% 29.64 in 10.0 mi South 8.1 mph - N/A   Clear
10:57 PM 66.7 °F 61.0 °F 82% 29.64 in 10.0 mi SSE 5.8 mph - N/A   Clear
11:15 PM 66.2 °F 60.3 °F 81% 29.64 in 10.0 mi South 9.2 mph - N/A   Scattered Clouds
11:16 PM 66.2 °F 60.4 °F 82% 29.64 in 10.0 mi SSE 10.4 mph - N/A   Scattered Clouds
11:35 PM 65.8 °F 60.1 °F 82% 29.64 in 10.0 mi SSE 9.2 mph - N/A   Scattered Clouds
11:36 PM 65.8 °F 60.1 °F 82% 29.64 in 10.0 mi SSE 8.1 mph - N/A   Scattered Clouds
11:55 PM 65.5 °F 60.1 °F 83% 29.65 in 10.0 mi South 3.5 mph - N/A   Scattered Clouds
11:59 PM 65.3 °F 60.1 °F 83% 29.65 in 10.0 mi Calm Calm - N/A   Mostly Cloudy